Location: Bathsheba
(13.2167°N, 59.5167°W)
Time: 23:53:47
(UTC+00:00)

ASTRO E2 - Pass Details

Date: 18 September 2020
Orbit: 509 x 515 km, 31.4° (Epoch: 20 October)

Event Time Altitude Azimuth Distance (km) Brightness Sun altitude
Rises 23:13:15 0° 298° (WNW) 2,600 7.5 -19.4°
Reaches altitude 10° 23:15:29 10° 296° (WNW) 1,716 6.4 -20.0°
Maximum altitude 23:19:25 73° 212° (SSW) 531 2.7 -20.9°
Enters shadow 23:19:56 62° 156° (SSE) 572 2.7 -21.1°
